Left ArrowRight Arrow

Hourly Observations for June 17, 2024

Temp ( °F °C ) Dew Point ( °F °C ) Humidity (%) Winds ( mph kmh ) Pressure ( in mb ) Visibility ( mi km ) Precip ( " mm )
12:53 am 00:53 Cloudy 36 2.2 24 -4.4 62 62 N 3 6 29.68 1005 10 16 0.00 0.00
1:53 am 01:53 Cloudy 35 1.7 25 -3.9 66 66 Calm 29.68 1005 10 16 0.00 0.00
2:08 am 02:08 Cloudy with Light Snow 34 1.1 27 -2.8 75 75 VRB 3 6 29.85 1011 2 3 0.01 0.13
2:17 am 02:17 Cloudy with Light Snow 33 0.6 29 -1.7 85 85 Calm 29.87 1011 1 2 0.01 0.25
2:30 am 02:30 Cloudy with Light Snow 33 0.6 29 -1.7 85 85 Calm 29.87 1011 2 3 0.01 0.25
2:40 am 02:40 Cloudy with Light Snow 32 0 29 -1.7 88 88 Calm 29.88 1012 4 6 0.01 0.25
2:53 am 02:53 Cloudy with Light Snow 32 0 29 -1.7 88 88 Calm 29.68 1005 6 10 0.01 0.25
3:10 am 03:10 Cloudy with Light Snow 32 0 29 -1.7 88 88 Calm 29.87 1012 2 3 0.01 0.13
3:22 am 03:22 Cloudy with Light Snow 32 0 29 -1.7 88 88 Calm 29.87 1012 2 2 0.01 0.13
3:31 am 03:31 Cloudy with Light Snow 32 0 29 -1.7 88 88 Calm 29.87 1012 3 5 0.01 0.13
3:53 am 03:53 Cloudy with Light Snow 32 0 29 -1.7 88 88 Calm 29.66 1004 4 6 0.01 0.13
4:50 am 04:50 Cloudy with Light Snow 32 0 28 -2 86 86 Calm 29.85 1011 7 11 0.01 0.13
4:53 am 04:53 Cloudy with Light Snow 32 0 29 -1.7 88 88 Calm 29.66 1004 8 13 0.01 0.13
5:53 am 05:53 Cloudy 32 0 29 -1.7 88 88 N 3 6 29.66 1005 10 16 0.01 0.13
6:53 am 06:53 Cloudy 32 0 28 -2.2 85 85 N 5 7 29.66 1005 10 16 0.00 0.00
7:53 am 07:53 Cloudy 33 0.6 29 -1.7 85 85 N 3 6 29.67 1005 10 16 0.00 0.00
8:07 am 08:07 Cloudy with Light Snow 33 0.6 29 -1.7 85 85 Calm 29.85 1011 3 4 0.01 0.13
8:20 am 08:20 Cloudy with Light Snow 33 0.6 30 -1.1 88 88 NNW 3 6 29.86 1011 4 6 0.01 0.13
8:39 am 08:39 Cloudy 34 1.1 30 -1.1 85 85 Calm 29.84 1011 10 16 0.01 0.13
8:53 am 08:53 Cloudy 35 1.7 30 -1.1 82 82 VRB 3 6 29.68 1005 10 16 0.01 0.13
9:23 am 09:23 Cloudy 36 2.2 31 -0.6 82 82 NNW 5 7 29.82 1010 10 16 0.00 0.00
9:53 am 09:53 Cloudy 36 2.2 31 -0.6 82 82 VRB 5 7 29.68 1005 10 16 0.00 0.00
10:53 am 10:53 Cloudy 40 4.4 31 -0.6 70 70 NNW 5 7 29.68 1005 10 16 0.00 0.00
11:53 am 11:53 Mostly Cloudy 43 6.1 28 -2.2 55 55 VRB 3 6 29.67 1005 10 16 0.00 0.00
12:22 pm 12:22 Cloudy 38 3.3 28 -2.2 67 67 undefined N/A 29.81 1010 10 16 0.01 0.13
12:31 pm 12:31 Cloudy with Light Snow 36 2.2 29 -1.7 75 75 VRB 6 9 29.84 1010 3 4 0.01 0.25
12:35 pm 12:35 Cloudy with Light Snow 35 1.7 29 -1.7 78 78 undefined N/A 29.85 1011 1 2 0.01 0.25
12:44 pm 12:44 Cloudy with Light Snow 34 1.1 30 -1.1 85 85 NNW 5 7 29.87 1012 1 1 0.01 0.25
12:53 pm 12:53 Cloudy with Light Snow 35 1.7 31 -0.6 85 85 N 3 6 29.71 1006 3 4 0.01 0.25
1:03 pm 13:03 Cloudy with Light Snow 34 1.1 30 -1.1 85 85 undefined N/A 29.87 1012 1 2 0.01 0.13
1:09 pm 13:09 Cloudy with Light Snow 34 1.1 31 -0.6 88 88 NNW 6 9 29.87 1012 1 1 0.01 0.13
1:25 pm 13:25 Cloudy with Light Snow 36 2.2 33 0.6 89 89 N 5 7 29.85 1011 3 5 0.01 0.25
1:29 pm 13:29 Cloudy with Light Snow 37 2.8 33 0.6 85 85 NNW 5 7 29.83 1010 6 10 0.01 0.25
1:53 pm 13:53 Mostly Cloudy with Light Rain 41 5 35 1.7 79 79 undefined N/A 29.70 1006 5 8 0.01 0.25
1:59 pm 13:59 Mostly Cloudy with Light Snow 37 2.8 33 0.6 85 85 undefined N/A 29.83 1010 2 3 0.01 0.13
2:08 pm 14:08 Mostly Cloudy with Light Snow 37 2.8 32 0 82 82 VRB 5 7 29.83 1010 3 5 0.01 0.13
2:15 pm 14:15 Mostly Cloudy 40 4.4 35 1.7 83 83 NNW 5 7 29.80 1009 9 14 0.01 0.13
2:48 pm 14:48 Cloudy with Light Rain 37 3 32 0 81 81 N 6 9 29.84 1010 9 14 0.01 0.13
2:56 pm 14:56 Cloudy with Light Snow 35 1.7 31 -0.6 85 85 VRB 5 7 29.87 1012 2 3 0.01 0.25
3:02 pm 15:02 Cloudy with Light Snow 34 1.1 31 -0.6 88 88 undefined N/A 29.88 1012 2 2 0.01 0.25
3:04 pm 15:04 Cloudy with Light Snow 34 1.1 31 -0.6 88 88 NNW 5 7 29.88 1012 1 2 0.01 0.25
3:13 pm 15:13 Cloudy with Light Snow 36 2.2 33 0.6 89 89 NNW 6 9 29.86 1011 2 3 0.01 0.25
3:16 pm 15:16 Cloudy with Light Snow 38 3.3 35 1.7 89 89 VRB 5 7 29.83 1010 5 8 0.01 0.25
3:28 pm 15:28 Mostly Cloudy 41 5 35 1.7 79 79 VRB 6 9 29.79 1009 10 16 0.01 0.25
3:53 pm 15:53 Partly Cloudy 41 5 34 1.1 76 76 VRB 7 11 29.72 1007 10 16 0.01 0.25
4:53 pm 16:53 Mostly Cloudy 42 5.6 34 1.1 73 73 Calm 29.72 1007 10 16 0.00 0.00
5:24 pm 17:24 Cloudy with Nearby Thunderstorms 40 4.4 33 0.6 76 76 VRB 3 6 29.83 1010 10 16 0.00 0.00
5:42 pm 17:42 Cloudy with Light Rain 38 3.3 33 0.6 82 82 Calm 29.85 1011 10 16 0.01 0.13
5:48 pm 17:48 Cloudy with Heavy Rain 36 2 34 1 93 93 N 5 7 29.88 1012 2 3 0.06 1.52
6:02 pm 18:02 Cloudy with Light Rain 37 2.8 34 1.1 89 89 VRB 5 7 29.87 1012 10 16 0.01 0.13
6:28 pm 18:28 Cloudy 37 2.8 34 1.1 89 89 VRB 5 7 29.88 1012 10 16 0.01 0.13
6:53 pm 18:53 Cloudy 37 2.8 34 1.1 89 89 VRB 3 6 29.78 1009 10 16 0.01 0.13
7:55 pm 19:55 Cloudy with Rain 36 2.2 34 1.1 92 92 VRB 3 6 29.92 1013 1 2 0.01 0.13
8:02 pm 20:02 Cloudy with Rain 36 2.2 34 1.1 92 92 Calm 29.93 1013 1 1 0.02 0.51
8:11 pm 20:11 Cloudy with Heavy Rain 34 1.1 33 0.6 96 96 NNW 5 7 29.95 1014 1 2 0.11 2.79
8:26 pm 20:26 Cloudy with Light Rain 34 1.1 31 -0.6 88 88 VRB 5 7 29.95 1014 3 5 0.16 4.06
8:49 pm 20:49 Cloudy 34 1 32 0 93 93 Calm 29.97 1015 8 13 0.16 4.06
8:53 pm 20:53 Cloudy with Light Rain 35 1.7 32 0 88 88 WSW 3 6 29.81 1010 10 16 0.16 4.06
9:18 pm 21:18 Cloudy with Light Rain 35 1.7 32 0 88 88 Calm 29.96 1015 1 1 0.01 0.13
9:53 pm 21:53 Cloudy with Light Rain 34 1.1 32 0 92 92 Calm 29.83 1010 2 3 0.03 0.76
9:55 pm 21:55 Cloudy with Light Rain 34 1.1 32 0 92 92 NW 5 7 29.98 1015 3 5 0.01 0.13
10:07 pm 22:07 Cloudy with Light Rain 34 1.1 32 0 92 92 Calm 29.98 1015 2 3 0.01 0.13
10:11 pm 22:11 Cloudy with Light Rain 34 1.1 32 0 92 92 VRB 3 6 29.98 1015 4 6 0.01 0.13
10:42 pm 22:42 Cloudy with Light Rain 35 1.7 33 0.6 92 92 SW 3 6 29.97 1015 1 1 0.01 0.25
10:53 pm 22:53 Cloudy with Light Rain 35 1.7 33 0.6 92 92 Calm 29.81 1009 0 0 0.01 0.25
11:18 pm 23:18 Cloudy with Fog 35 1.7 33 0.6 92 92 VRB 3 6 29.97 1015 0 0 0.01 0.13
11:53 pm 23:53 Cloudy with Fog 35 1.7 34 1.1 96 96 SW 3 6 29.80 1009 0 0 0.01 0.13

Powered by Vaisala Xweather